Hobart, OK

11:42 PM CDT on March 28, 2017 (GMT -0500)
Hobart Municipal

Weather History for KHBR - February, 2013

Change the Weather History Date:

Monday, February 4, 2013

  Actual Average Record
Temperature  
Mean Temperature 54 °F -  
Max Temperature 66 °F 48 °F 78 °F (2008)
Min Temperature 39 °F 28 °F 19 °F (2011)
Degree Days  
Heating Degree Days 12    
Growing Degree Days 4 (Base 50)    
Moisture  
Dew Point 31 °F    
Average Humidity 44    
Maximum Humidity 66    
Minimum Humidity 22    
Precipitation  
Precipitation 0.00 in - - ()
Sea Level Pressure  
Sea Level Pressure 29.87 in    
Wind  
Wind Speed 12 mph (ENE)    
Max Wind Speed 21 mph    
Max Gust Speed 23 mph    
Visibility 10 miles    
Events      
Averages and records for this station are not official NWS values.
T = Trace of Precipitation, MM = Missing Value Source: NWS Daily Summary

Daily Weather History Graph

Daily Weather History Graph

Search for Another Location

Airport or City:

Trip Planner

Search our weather history database for the weather conditions in past years. The results will help you decide how hot, cold, wet, or windy it might be!

Date:

Astronomy

Feb. 04, 2013 Rise Set
Actual Time 7:32 AM CST 6:08 PM CST
Civil Twilight 7:05 AM CST 6:34 PM CST
Nautical Twilight 6:35 AM CST 7:04 PM CST
Astronomical Twilight 6:06 AM CST 7:34 PM CST
Moon 2:07 AM CST (2/4) 12:36 PM CST (2/4)
Length of Visible Light 11h 28m
Length of Day
10h 36m
Last Quarter, 37% of the Moon is Illuminated
Feb 4
Last Quarter
Feb 10
New
Feb 17
First Quarter
Feb 25
Full
Mar 4
Last Quarter

Hourly Weather History & Observations

Time (CST) Temp. Windchill Dew Point Humidity Pressure Visibility Wind Dir Wind Speed Gust Speed Precip Events Conditions
12:53 AM 53.1 °F - 25.0 °F 34% 29.85 in 10.0 mi SSW 11.5 mph - N/A   Partly Cloudy
1:53 AM 53.1 °F - 28.0 °F 38% 29.83 in 10.0 mi South 15.0 mph - N/A   Clear
2:53 AM 54.0 °F - 30.0 °F 40% 29.81 in 10.0 mi South 15.0 mph - N/A   Clear
4:53 AM 53.1 °F - 35.1 °F 50% 29.77 in 10.0 mi South 16.1 mph - N/A   Clear
5:53 AM 52.0 °F - 37.0 °F 57% 29.79 in 10.0 mi SSW 11.5 mph - N/A   Partly Cloudy
6:53 AM 51.1 °F - 37.9 °F 61% 29.81 in 10.0 mi SSW 10.4 mph - N/A   Clear
7:53 AM 48.9 °F - 37.0 °F 64% 29.84 in 10.0 mi SSW 4.6 mph - N/A   Clear
8:53 AM 50.0 °F - 39.0 °F 66% 29.85 in 10.0 mi North 6.9 mph - N/A   Clear
9:53 AM 55.0 °F - 41.0 °F 59% 29.87 in 10.0 mi NNE 6.9 mph - N/A   Clear
10:53 AM 59.0 °F - 37.9 °F 46% 29.88 in 10.0 mi NNE 20.7 mph - N/A   Clear
11:53 AM 60.1 °F - 35.1 °F 39% 29.88 in 10.0 mi NE 17.3 mph - N/A   Clear
12:53 PM 64.0 °F - 30.9 °F 29% 29.87 in 10.0 mi NNE 18.4 mph 23.0 mph N/A   Clear
1:53 PM 66.0 °F - 27.0 °F 23% 29.85 in 10.0 mi NE 15.0 mph - N/A   Clear
2:53 PM 64.9 °F - 26.1 °F 23% 29.85 in 10.0 mi NNE 19.6 mph - N/A   Clear
3:53 PM 64.9 °F - 25.0 °F 22% 29.85 in 10.0 mi NE 15.0 mph - N/A   Clear
4:53 PM 63.0 °F - 25.0 °F 24% 29.86 in 10.0 mi ENE 12.7 mph - N/A   Clear
5:53 PM 55.9 °F - 27.0 °F 33% 29.88 in 10.0 mi ENE 8.1 mph - N/A   Clear
6:53 PM 48.0 °F - 26.1 °F 42% 29.91 in 10.0 mi NE 9.2 mph - N/A   Clear
7:53 PM 44.1 °F 39.0 °F 26.1 °F 49% 29.94 in 10.0 mi NNE 9.2 mph - N/A   Clear
8:53 PM 44.1 °F 40.1 °F 26.1 °F 49% 29.96 in 10.0 mi NE 6.9 mph - N/A   Clear
9:53 PM 41.0 °F 35.2 °F 26.1 °F 55% 29.97 in 10.0 mi NE 9.2 mph - N/A   Clear
10:53 PM 41.0 °F 39.0 °F 27.0 °F 57% 29.96 in 10.0 mi ENE 3.5 mph - N/A   Clear
11:53 PM 39.0 °F 36.8 °F 27.0 °F 62% 29.96 in 10.0 mi ENE 3.5 mph - N/A   Clear